Simultaneous Nadir Overpasses (SNOs) Predictions

Prediction of SNOs between GOES-16 and TERRA Satellite Orbit:

Table of predicted SNOs for the next 14.0 days since TLE Epoch: 10/31/2025
Index Date Time (GOES-16) GOES-16 Lat,Lon TERRA Lat,Lon Distance(km) Time Diff (sec)
1 11/01/2025 15:54:44 0.05,-104.71 -0.74,-100.80 443.31 80
2 11/02/2025 04:14:15 -0.05,-104.66 -0.25,-105.56 102.59 80
3 11/04/2025 03:52:07 -0.05,-104.66 0.76,-100.87 430.24 80
4 11/04/2025 16:11:30 0.05,-104.71 0.25,-105.59 100.12 80
5 11/06/2025 15:54:41 0.05,-104.71 -0.73,-100.90 432.60 80
6 11/07/2025 04:14:12 -0.05,-104.65 -0.26,-105.65 113.21 80
7 11/09/2025 03:52:02 -0.06,-104.64 0.69,-100.95 419.24 80
8 11/09/2025 16:11:25 0.06,-104.69 0.23,-105.68 111.48 80
9 11/11/2025 15:54:35 0.07,-104.69 -0.68,-100.97 421.83 80
10 11/12/2025 04:14:05 -0.07,-104.64 -0.31,-105.72 123.45 80
11 11/14/2025 03:51:55 -0.07,-104.64 0.69,-101.03 410.36 80
12 11/14/2025 16:11:18 0.07,-104.69 0.27,-105.75 120.28 80
